Location: Bauersach School (historical)
(38.0926°N, 89.4806°W)
Time: 02:38:51
(UTC+00:00)

Cosmos 1437 Rocket - Pass Details

Date: 11 December 2025
Orbit: 446 x 485 km, 81.2° (Epoch: 15 January)

Event Time Altitude Azimuth Distance (km) Brightness Sun altitude
Rises 12:21:48 0° 355° (N) 2,454 5.9 -8.4°
Reaches altitude 10° 12:23:53 10° 359° (N) 1,581 4.9 -8.0°
Maximum altitude 12:27:18 61° 80° (E) 518 3.0 -7.4°
Drops below altitude 10° 12:30:43 10° 161° (SSE) 1,582 5.8 -6.7°
Sets 12:32:48 0° 165° (SSE) 2,456 6.8 -6.4°
